Regional Weather Roundup
Issued by NWS

Home | Current Version | Previous Version | Text Only | Print | Product List | Glossary On
Versions: 1 2 3 4 5 6 7 8 9 10 11 12 13 14 15 16 17 18 19 20 21 22 23 24 25 26 27 28 29 30 31 32 33 34 35 36 37 38 39 40 41 42 43 44 45 46 47 48 49 50
000
ASUS43 KOAX 240102
RWRNE

WEATHER ROUNDUP FOR NEBRASKA
NATIONAL WEATHER SERVICE OMAHA NE
800 PM CDT WED APR 23 2014

NOTES: SATELLITE DATA IS BEING USED TO AUGMENT CLOUD COVER ABOVE
       12000 FEET.
       "FAIR" INDICATES FEW OR NO CLOUDS BELOW 12,000 FEET WITH NO
       SIGNIFICANT WEATHER AND/OR OBSTRUCTIONS TO VISIBILITY.

  * THESE STATIONS DO NOT REPORT WEATHER SUCH AS RAIN...SNOW OR FOG.

NEZ001>004-019>022-054>056-240200-
NEBRASKA PANHANDLE

CITY           SKY/WX    TMP DP  RH WIND       PRES   REMARKS
SCOTTSBLUFF    CLOUDY    59  11  15 NW18G28   29.72R
ALLIANCE       CLOUDY    57  30  35 N6        29.70R
CHADRON        CLOUDY    56  40  55 NE10      29.70R
KIMBALL        CLOUDY    55   6  14 NW21G28   29.75R
SIDNEY         CLOUDY    54  26  34 NW21G28   29.77R
$$

NEZ057>060-069>072-079>082-240200-
SOUTHWEST NEBRASKA

CITY           SKY/WX    TMP DP  RH WIND       PRES   REMARKS
NORTH PLATTE   MOCLDY    70  27  20 N17       29.53R
IMPERIAL       MOCLDY    66  22  18 N24G32    29.59R
LEXINGTON      MOCLDY    74  29  19 N15G24    29.50R THUNDER
MCCOOK         TSTM      68  46  45 NE13      29.51R
OGALLALA       CLOUDY    64  22  20 NW29G37   29.63R
$$

NEZ005>010-023>029-035>040-094-240200-
NORTH CENTRAL NEBRASKA

CITY           SKY/WX    TMP DP  RH WIND       PRES   REMARKS
VALENTINE      PTCLDY    60  42  51 N25G35    29.60R
AINSWORTH      PTCLDY    68  41  37 NW26G36   29.57R
BROKEN BOW     PTCLDY    71  23  16 N21       29.52R
O`NEILL        PTCLDY    73  39  29 N9        29.51F
ORD            MOCLDY    75  42  30 N18G26    29.48R
THEDFORD       MOCLDY    70  21  15 NW21G28   29.57F
$$

NEZ041-046>049-061>064-073>077-083>087-240200-
SOUTH CENTRAL NEBRASKA

CITY           SKY/WX    TMP DP  RH WIND       PRES   REMARKS
GRAND ISLAND   TSTM      60  52  74 S20G36    29.54R
AURORA         RAIN      63  53  71 NW13      29.56F
HASTINGS       CLOUDY    66  48  52 NW10      29.53R THUNDER
HEBRON         PTCLDY    77  45  32 S15G22    29.49F
HOLDREGE       TSTM      64  51  63 SE8G20    29.54R
KEARNEY *      CLOUDY    63  54  72 SW20G31   29.53R
YORK           TSTM      63  50  63 N13G28    29.59R
$$

NEZ011>018-030>034-042>045-240200-
NORTHEAST NEBRASKA

CITY           SKY/WX    TMP DP  RH WIND       PRES   REMARKS
NORFOLK        CLOUDY    55  47  74 SE22G29   29.52F
ALBION         CLOUDY    59  48  67 E14G20    29.52S
BLAIR          LGT RAIN  54  45  72 E13G21    29.65R
COLUMBUS *     CLOUDY    61  48  63 SE23G32   29.58R
FREMONT        LGT RAIN  55  47  76 E12       29.66F
TEKAMAH        RAIN      53  47  79 S18       29.69R
$$

NEZ050>053-065>068-078-088>093-240200-
SOUTHEAST NEBRASKA

CITY           SKY/WX    TMP DP  RH WIND       PRES   REMARKS
LINCOLN        CLOUDY    62  48  60 N10       29.58F
OMAHA EPPLEY   CLOUDY    56  45  66 SE17      29.63S
BEATRICE       MOCLDY    75  47  36 SE20G25   29.53S
FALLS CITY     MOCLDY    68  46  45 SE14      29.61F
NEBRASKA CITY  CLOUDY    65  44  45 SE15G23   29.60F
PLATTSMOUTH    CLOUDY    58  45  62 E16G22    29.61F
$$

NEZ044-045-051>053-067-240200-
OMAHA AREA

CITY           SKY/WX    TMP DP  RH WIND       PRES   REMARKS
OMAHA EPPLEY   CLOUDY    56  45  66 SE17      29.63S
BLAIR          LGT RAIN  54  45  72 E13G21    29.65R
FREMONT        LGT RAIN  55  47  76 E12       29.66F
MILLARD        CLOUDY    57  45  62 E9G17     29.62F
OFFUTT AFB     PTCLDY    57  46  65 E15       29.62S
PLATTSMOUTH    CLOUDY    58  45  62 E16G22    29.61F
WAHOO          LGT RAIN  55  47  75 NE9       29.63R
$$



USA.gov is the U.S. government's official web portal to all federal, state and local government web resources and services.